Location: Aldenham
(51.6667°N, 0.3500°W)
Time: 06:16:24
(UTC+00:00)

A-11 Canister half - Pass Details

Date: 17 February 2026
Orbit: 1512 x 1687 km, 47.2° (Epoch: 5 March)

Event Time Altitude Azimuth Distance (km) Brightness Sun altitude
Rises 20:48:16 0° 217° (SW) 4,932 11.8 -32.4°
Reaches altitude 10° 20:51:41 10° 211° (SSW) 3,942 11.2 -32.9°
Enters shadow 20:57:04 31° 187° (S) 2,644 10.0 -33.6°
Maximum altitude 21:00:51 41° 146° (SE) 2,270 - -34.1°
Drops below altitude 10° 21:09:49 10° 81° (E) 3,870 - -35.3°
Sets 21:13:08 0° 75° (ENE) 4,834 - -35.8°
